カタログに戻る

NSS 7

運用中通信GEO
NORAD 27414·PAYLOAD·🇱🇺 Luxembourg

打ち上げ Apr 16, 2002 から Guiana Space Centre

Loading…

TLE

最新Source: Space-Track

元期: Sep 14, 2026, 05:59 UTC

1 27414U 02019A   26257.24959752 -.00000282  00000-0  00000-0 0  9998
2 27414   9.5240  56.7638 0004175 134.2707  48.1916  0.99085273 89342

AllMySatでNSS 7をリアルタイム追跡

Download on the App Store